Tracking 20040 objects as of 19-Nov-2019
Live streaming from Space Station
objects crossing your sky now

BREEZE M DEB (TANK)

Track BREEZE M DEB (TANK) now!
10-day predictions


NORAD ID: 41583
Int'l Code: 2016-035C
Perigee: 380.0 km
Apogee: 13,993.8 km
Inclination: 50.8 °
Period: 261.8 minutes
Semi major axis: 13557 km
RCS: Unknown
Launch date: June 9, 2016
Source: Commonwealth of Independent States (former USSR) (CIS)
Launch site: ()

Note: This is SATELLITE DEBRIS
aabbcc
Your satellite tracking list
Your tracking list is empty




NASA's NSSDC Master Catalog

Two Line Element Set (TLE):
1 41583U 16035C   19322.52487188  .00000153  00000-0  74365-4 0  9994
2 41583  50.7860  81.9453 5020597 251.6683  49.1727  5.49937867 69113
Source of the keplerian elements: AFSPC